Location: G�migny
(47.9646°N, 1.6950°E)
Time: 00:25:13
(UTC+00:00)

YAOGAN 6 - Pass Details

Date: 27 January 2020
Orbit: 465 x 505 km, 97.0° (Epoch: 24 February)

Event Time Altitude Azimuth Distance (km) Brightness Sun altitude
Rises 06:25:21 0° 18° (NNE) 2,538 6.2 -10.5°
Reaches altitude 10° 06:27:30 10° 25° (NNE) 1,649 5.4 -10.2°
Maximum altitude 06:30:53 43° 98° (E) 668 3.9 -9.6°
Drops below altitude 10° 06:34:14 10° 172° (S) 1,620 5.6 -9.1°
Sets 06:36:19 0° 179° (S) 2,488 6.4 -8.8°
